{"data":{"norad_id":64699,"epoch":"2026-09-20T11:42:51.166080Z","epoch_age_seconds":128602,"freshness":"FRESH","line1":"1 64699U 25142D   26263.48809220  .00018173  00000+0  63511-3 0  9998","line2":"2 64699  70.0043 180.7264 0002145 287.3142  72.7798 15.29581691 68727","mean_motion":15.29581691,"eccentricity":0.0002145,"inclination_deg":70.0043,"raan_deg":180.7264,"arg_perigee_deg":287.3142,"mean_anomaly_deg":72.7798,"bstar":0.00063511,"rev_number":6872,"period_min":94.143386291357,"perigee_km":475.59141036137,"apogee_km":478.53229066824,"semimajor_km":6855.1988505148,"source":"CELESTRAK","updated_at":"2026-09-21T09:00:35.403299Z"}}